Weather History for KCSV - June, 2014

Change the Weather History Date:

Wednesday, June 11, 2014

  Actual Average Record
Temperature  
Mean Temperature 71 °F 70 °F  
Max Temperature 75 °F 80 °F 90 °F (1977)
Min Temperature 66 °F 60 °F 41 °F (1988)
Degree Days  
Heating Degree Days 0    
Month to date heating degree days 0  
Since 1 June heating degree days 0  
Since 1 July heating degree days 4486  
Cooling Degree Days 6    
Month to date cooling degree days 64  
Year to date cooling degree days 182  
Since 1 June cooling degree days 64  
Growing Degree Days 20 (Base 50)    
Moisture  
Dew Point 62 °F    
Average Humidity 74    
Maximum Humidity 87    
Minimum Humidity 60    
Precipitation  
Precipitation T in 0.15 in 0.77 in (1975)
Month to date precipitation 1.89 1.74  
Year to date precipitation 19.80 26.12  
Sea Level Pressure  
Sea Level Pressure 29.86 in    
Wind  
Wind Speed 8 mph (SSW)    
Max Wind Speed 13 mph    
Max Gust Speed 23 mph    
Visibility 10 miles    
Events      
T = Trace of Precipitation, MM = Missing Value Source: NWS Daily Summary

Daily Weather History Graph

Daily Weather History Graph

Search for Another Location

Airport or City:

Trip Planner

Search our weather history database for the weather conditions in past years. The results will help you decide how hot, cold, wet, or windy it might be!

Date:

Astronomy

Jun. 11, 2014 Rise Set
Actual Time 5:23 AM CDT 7:57 PM CDT
Civil Twilight 4:53 AM CDT 8:27 PM CDT
Nautical Twilight 4:15 AM CDT 9:04 PM CDT
Astronomical Twilight 3:34 AM CDT 9:45 PM CDT
Moon 6:28 PM CDT (6/11) 4:08 AM CDT (6/11)
Length of Visible Light 15h 34m
Length of Day
14h 33m
Waxing Gibbous, 97% of the Moon is Illuminated
Jun 11
Waxing Gibbous
Jun 12
Full
Jun 19
Last Quarter
Jun 27
New
Jul 5
First Quarter

Hourly Weather History & Observations

Time (CDT) Temp. Dew Point Humidity Pressure Visibility Wind Dir Wind Speed Gust Speed Precip Events Conditions
12:53 AM 66.0 °F 61.0 °F 84% 29.85 in 10.0 mi SSE 8.1 mph - N/A   Mostly Cloudy
1:53 AM 66.9 °F 61.0 °F 81% 29.84 in 10.0 mi Variable 6.9 mph - 0.00 in   Overcast
2:53 AM 66.0 °F 61.0 °F 84% 29.83 in 10.0 mi South 6.9 mph - N/A   Scattered Clouds
3:53 AM 70.0 °F 61.0 °F 73% 29.84 in 10.0 mi Variable 5.8 mph - N/A   Mostly Cloudy
4:16 AM 66.9 °F 61.0 °F 81% 29.88 in 10.0 mi Variable 5.8 mph - N/A   Scattered Clouds
4:53 AM 68.0 °F 61.0 °F 78% 29.85 in 10.0 mi South 8.1 mph - N/A   Mostly Cloudy
5:07 AM 68.0 °F 61.0 °F 78% 29.89 in 10.0 mi South 8.1 mph - N/A   Overcast
5:53 AM 68.0 °F 62.1 °F 81% 29.86 in 10.0 mi SSW 8.1 mph - N/A   Overcast
6:27 AM 66.9 °F 62.1 °F 84% 29.90 in 10.0 mi South 6.9 mph - N/A   Overcast
6:53 AM 66.9 °F 62.1 °F 84% 29.86 in 10.0 mi South 9.2 mph - N/A   Overcast
7:14 AM 68.0 °F 62.1 °F 81% 29.91 in 10.0 mi Variable 6.9 mph - N/A   Overcast
7:22 AM 68.0 °F 62.1 °F 81% 29.91 in 10.0 mi South 8.1 mph - N/A   Mostly Cloudy
7:49 AM 69.8 °F 62.6 °F 78% 29.91 in 10.0 mi South 8.1 mph - N/A   Mostly Cloudy
7:53 AM 69.1 °F 62.1 °F 78% 29.86 in 10.0 mi South 12.7 mph 21.9 mph N/A   Mostly Cloudy
8:03 AM 68.0 °F 62.1 °F 81% 29.90 in 10.0 mi Variable 6.9 mph - N/A   Mostly Cloudy
8:53 AM 69.1 °F 62.1 °F 78% 29.86 in 10.0 mi South 9.2 mph 18.4 mph N/A   Mostly Cloudy
9:53 AM 69.1 °F 62.1 °F 78% 29.85 in 10.0 mi South 9.2 mph - N/A   Overcast
10:53 AM 68.0 °F 62.1 °F 81% 29.86 in 10.0 mi South 9.2 mph - N/A   Overcast
11:08 AM 68.0 °F 62.1 °F 81% 29.92 in 10.0 mi Variable 6.9 mph - N/A   Overcast
11:40 AM 69.1 °F 63.0 °F 81% 29.92 in 10.0 mi South 9.2 mph 18.4 mph 0.00 in   Overcast
11:53 AM 69.1 °F 63.0 °F 81% 29.86 in 10.0 mi South 9.2 mph - 0.00 in   Overcast
12:53 PM 73.0 °F 62.1 °F 68% 29.84 in 10.0 mi Variable 5.8 mph - N/A   Mostly Cloudy
1:53 PM 72.0 °F 63.0 °F 73% 29.83 in 10.0 mi SSE 9.2 mph - N/A   Overcast
2:53 PM 72.0 °F 63.0 °F 73% 29.81 in 10.0 mi WSW 5.8 mph - N/A   Overcast
3:05 PM 71.1 °F 63.0 °F 75% 29.86 in 10.0 mi SW 4.6 mph - N/A   Overcast
3:15 PM 73.0 °F 63.0 °F 71% 29.86 in 10.0 mi SW 9.2 mph - N/A   Scattered Clouds
4:53 PM 75.0 °F 61.0 °F 62% 29.79 in 10.0 mi Variable 5.8 mph - N/A   Clear
5:53 PM 75.0 °F 61.0 °F 62% 29.78 in 10.0 mi WSW 5.8 mph - N/A   Clear
6:53 PM 71.1 °F 62.1 °F 73% 29.80 in 10.0 mi West 8.1 mph - N/A   Mostly Cloudy
7:53 PM 66.0 °F 63.0 °F 90% 29.82 in 10.0 mi WSW 3.5 mph - 0.01 in   Mostly Cloudy
8:53 PM 66.0 °F 63.0 °F 90% 29.83 in 10.0 mi Calm Calm - N/A   Overcast
9:53 PM 66.9 °F 63.0 °F 87% 29.85 in 10.0 mi Calm Calm - N/A   Overcast
10:53 PM 66.0 °F 62.1 °F 87% 29.85 in 10.0 mi Calm Calm - N/A   Overcast
11:53 PM 64.9 °F 62.1 °F 90% 29.85 in 10.0 mi Calm Calm - N/A   Mostly Cloudy